sat.trackr.live / text

‹ back to catalog

BEIDOU-3 M13 (C32)

NORAD 43622 · 2018-072A

PAYLOAD ACTIVE UNKNOWN

§ Identity

Operator
Country
PRC
Launch date
2018-09-19
Launch site
XICLF
Launch vehicle
Mass (kg)
RCS (m²)

Purposes: earth_obs, nav

External: N2YO · Heavens-Above · Gunter

§ Orbital elements

Epoch: 2026-05-24T21:50:04.102080Z

Period
773.23 min
Inclination
56.6058°
Eccentricity
0.0008090
Mean motion
1.86231070 rev/d
Perigee alt
21,505.5 km
Apogee alt
21,550.6 km
Semi-major
27,906.2 km
B*
0.0000e+0
RAAN
63.4274°
Arg perigee
325.3050°
Mean anomaly
34.6357°
Rev number
5,222

§ Raw data

BEIDOU-3 M13 (C32)1 43622U 18072A   26144.90976970 -.00000075  00000+0  00000+0 0  99902 43622  56.6058  63.4274 0008090 325.3050  34.6357  1.86231070 52227

JSON: /api/v1/satellites/43622 · /tle

For live sub-satellite position, see the globe view (requires WebGL).

§ Visibility from observer

Set your observer location to see the next 7 days of passes ≥ 10°. The values pass through the URL so the page stays shareable.

No JS? Fill the form by hand. The geolocation button needs JavaScript.